Weather in Ipswich

United Kingdom     52°03′30″N   1°11′41″E
temp.,
°C
wind,
m/s
gust,
m/s
humid.,
%
clouds,
%
prec.,
mm/h
press.,
hPa
HPBL,
m
1 march, mon
mon100:00+5ene47930 0.0 1035160
03:00+4ene47930 0.0 1034179
06:00+4ene46940 0.0 1034147
09:00+7e57892 0.0 1033338
12:00+8e57835 0.0 1033353
15:00+7ene57820 0.0 1031340
18:00+5ene48900 0.0 1031200
21:00+5ene46900 0.0 1031105
2 march, tue
tue200:00+6ene34900 0.0 103163
03:00+5ene34900 0.0 102956
06:00+5ene34900 0.0 103051
09:00+8e35800 0.0 1029244
12:00+9ese34700 0.0 1030333
15:00+9ese33745 0.0 1028314
18:00+5ese22892 0.0 102824
21:00+5e11890 0.0 102922
3 march, wed
wed300:00+4nw11871 0.0 102822
03:00+4nnw11840 0.0 102822
06:00+4ne11830 0.0 102722
09:00+7ene117354 0.0 102774
12:00+10se226946 0.0 1027285
15:00+9ese238297 0.4 1025115
18:00+8se238998 0.4 102436
21:00+8ese229473 0.0 102331
4 march, thu
thu400:00+7n119677 0.0 102239
03:00+7nne479198 0.0 1020263
06:00+6nne469199 0.1 1020342
09:00+6nnw5887100 0.1 1020444
12:00+8n677890 0.1 1021644
15:00+6n6878100 0.1 1021898
18:00+6nne5873100 0.1 1022890
21:00+4n797193 0.1 10231048
5 march, fri
fri500:00+3n597194 0.1 1024825
03:00+2nne597581 0.1 1024567
06:00+2n597284 0.1 1025711
09:00+4ne796492 0.0 10261393
12:00+5ne785982 0.1 10281458
15:00+5ne685832 0.0 10291434
18:00+2nne487021 0.0 1030402
21:00+1nne47810 0.0 1032278